Date String (YYYY-MM-DD hh:mm:ss) UTC,Instrument flags,Ambient pressure (hPa),Sample flow (lpm),Bypass flow (lpm),Sample temperature (°C),Ambient temperature (°C),ASC tube jacket temperature (°C),LED temperature (°C),Box temperature (°C),Sample RH (%),Span deviation,Mass concentration (μg/m³),Mass concentration (μg/m³),Mass concentration (μg/m³)
DateTimeUTC,F1_M11,P_M11,Q1_M11,Q2_M11,T1_M11,T2_M11,T3_M11,T4_M11,T5_M11,U1_M11,ZSPAN_M11,X0_M11,X2_M11,X1_M11
2021-09-18 12:00:00,,0831.0,5.00,0.00,27.5,26.7,00.0,36.8,29.3,22.9,0002.4,0024.89,0010.10,0008.11
2021-09-18 12:01:00,,0831.0,4.99,0.00,27.5,26.7,00.0,36.7,29.3,23.0,0002.2,0025.77,0010.19,0008.13
2021-09-18 12:02:00,,0831.0,5.00,0.00,27.5,26.7,00.0,36.7,29.3,23.1,0001.7,0026.79,0010.23,0008.15
2021-09-18 12:03:00,,0831.0,5.00,0.00,27.5,26.7,00.0,36.7,29.3,23.2,0001.2,0026.61,0010.25,0008.18
2021-09-18 12:04:00,,0831.0,5.01,0.00,27.5,26.7,00.0,36.7,29.2,23.3,0001.1,0026.93,0010.27,0008.22
2021-09-18 12:05:00,,0831.0,5.01,0.00,27.5,26.7,00.0,36.7,29.2,23.3,0001.3,0027.87,0010.33,0008.27
2021-09-18 12:06:00,,0831.1,5.00,0.00,27.5,26.7,00.0,36.7,29.2,23.2,0002.2,0028.36,0010.36,0008.30
2021-09-18 12:07:00,,0831.1,4.99,0.00,27.4,26.6,00.0,36.7,29.2,23.0,0002.4,0028.32,0010.40,0008.32
2021-09-18 12:08:00,,0831.0,5.01,0.00,27.4,26.6,00.0,36.7,29.2,23.2,0002.3,0028.05,0010.44,0008.35
2021-09-18 12:09:00,,0831.0,5.00,0.00,27.4,26.6,00.0,36.7,29.2,23.4,0002.4,0027.83,0010.53,0008.37
2021-09-18 12:10:00,,0831.1,5.00,0.00,27.4,26.6,00.0,36.7,29.2,23.3,0002.0,0026.91,0010.55,0008.35
2021-09-18 12:11:00,,0831.0,5.00,0.00,27.4,26.6,00.0,36.7,29.2,23.2,0002.3,0026.56,0010.56,0008.34
2021-09-18 12:12:00,,0831.0,5.01,0.00,27.4,26.6,00.0,36.6,29.2,23.1,0002.4,0025.80,0010.51,0008.34
2021-09-18 12:13:00,,0831.0,5.00,0.00,27.4,26.7,00.0,36.6,29.2,22.9,0002.6,0025.31,0010.53,0008.35
2021-09-18 12:14:00,,0831.0,5.00,0.00,27.4,26.6,00.0,36.6,29.2,22.8,0002.9,0026.26,0010.56,0008.33
2021-09-18 12:15:00,,0831.1,4.99,0.00,27.4,26.6,00.0,36.6,29.2,22.8,0002.9,0026.92,0010.62,0008.32
2021-09-18 12:16:00,,0831.1,5.01,0.00,27.4,26.6,00.0,36.6,29.2,22.6,0002.7,0026.20,0010.62,0008.29
2021-09-18 12:17:00,,0831.1,5.00,0.00,27.4,26.6,00.0,36.6,29.2,22.7,0002.5,0026.10,0010.58,0008.26
2021-09-18 12:18:00,,0831.0,5.00,0.00,27.4,26.6,00.0,36.6,29.2,22.9,0001.9,0025.26,0010.56,0008.26
2021-09-18 12:19:00,,0831.0,5.01,0.00,27.4,26.6,00.0,36.6,29.1,23.0,0002.1,0024.87,0010.56,0008.26
2021-09-18 12:20:00,,0831.0,5.00,0.00,27.4,26.6,00.0,36.6,29.1,23.2,0002.2,0024.69,0010.52,0008.24
2021-09-18 12:21:00,,0831.0,4.98,0.00,27.4,26.6,00.0,36.6,29.1,23.0,0002.3,0024.04,0010.49,0008.25
2021-09-18 12:22:00,,0831.0,5.00,0.00,27.4,26.6,00.0,36.6,29.1,23.0,0002.0,0023.93,0010.49,0008.26
2021-09-18 12:23:00,,0831.0,5.01,0.00,27.3,26.6,00.0,36.6,29.0,23.5,0001.8,0024.88,0010.50,0008.28
2021-09-18 12:24:00,,0831.0,5.00,0.00,27.3,26.6,00.0,36.6,29.1,23.6,0001.6,0025.95,0010.54,0008.28
2021-09-18 12:25:00,,0831.0,5.01,0.00,27.3,26.6,00.0,36.6,29.1,23.7,0001.3,0026.24,0010.59,0008.29
2021-09-18 12:26:00,,0831.0,5.00,0.00,27.3,26.6,00.0,36.6,29.1,23.8,0001.2,0024.99,0010.52,0008.26
2021-09-18 12:27:00,,0831.1,5.00,0.00,27.3,26.6,00.0,36.6,29.1,23.7,0001.1,0025.16,0010.52,0008.30
2021-09-18 12:28:00,,0831.0,4.99,0.00,27.3,26.6,00.0,36.5,29.1,23.6,0000.9,0025.35,0010.54,0008.32
2021-09-18 12:29:00,,0831.0,5.00,0.00,27.3,26.6,00.0,36.5,29.1,23.6,0000.8,0025.68,0010.53,0008.30
2021-09-18 12:30:00,,0831.0,5.00,0.00,27.3,26.6,00.0,36.5,29.1,24.1,0000.8,0025.44,0010.52,0008.24
2021-09-18 12:31:00,,0831.0,4.99,0.00,27.4,26.7,00.0,36.5,29.1,24.1,0000.7,0026.49,0010.49,0008.16
2021-09-18 12:32:00,,0831.0,5.01,0.00,27.4,26.7,00.0,36.5,29.2,24.0,0000.6,0027.11,0010.44,0008.10
2021-09-18 12:33:00,,0831.0,4.99,0.00,27.4,26.7,00.0,36.5,29.2,23.8,0000.5,0027.73,0010.32,0008.01
2021-09-18 12:34:00,,0831.0,5.01,0.00,27.4,26.7,00.0,36.5,29.2,23.8,0000.6,0026.67,0010.18,0007.92
2021-09-18 12:35:00,,0831.0,5.00,0.00,27.4,26.7,00.0,36.5,29.2,23.8,0000.9,0024.78,0010.07,0007.85
2021-09-18 12:36:00,,0831.0,5.00,0.00,27.4,26.7,00.0,36.5,29.2,23.8,0001.3,0024.59,0009.98,0007.81
2021-09-18 12:37:00,,0831.0,4.99,0.00,27.4,26.7,00.0,36.5,29.2,23.7,0001.5,0025.24,0010.00,0007.81
2021-09-18 12:38:00,,0831.1,5.01,0.00,27.4,26.7,00.0,36.5,29.2,23.7,0001.7,0024.89,0010.01,0007.77
2021-09-18 12:39:00,,0831.1,5.00,0.00,27.4,26.7,00.0,36.5,29.2,23.7,0001.9,0024.02,0009.94,0007.73
2021-09-18 12:40:00,,0831.0,4.99,0.00,27.4,26.7,00.0,36.5,29.2,23.6,0002.1,0024.97,0009.92,0007.72
2021-09-18 12:41:00,,0831.1,5.01,0.00,27.4,26.6,00.0,36.5,29.2,23.6,0001.7,0025.25,0009.94,0007.76
2021-09-18 12:42:00,,0831.1,5.00,0.00,27.4,26.7,00.0,36.5,29.2,23.7,0001.5,0025.21,0009.92,0007.81
2021-09-18 12:43:00,,0831.1,5.00,0.00,27.4,26.7,00.0,36.5,29.2,23.8,0001.5,0025.44,0009.95,0007.84
2021-09-18 12:44:00,,0831.1,5.01,0.00,27.4,26.7,00.0,36.5,29.2,23.7,0001.6,0024.72,0010.06,0007.88
2021-09-18 12:45:00,,0831.1,5.00,0.00,27.4,26.7,00.0,36.5,29.2,23.7,0001.7,0024.43,0010.14,0007.91
2021-09-18 12:46:00,,0831.1,5.00,0.00,27.4,26.7,00.0,36.5,29.2,23.6,0001.6,0024.70,0010.12,0007.92
2021-09-18 12:47:00,,0831.2,4.99,0.00,27.4,26.7,00.0,36.5,29.2,23.4,0001.2,0024.09,0010.12,0007.92
2021-09-18 12:48:00,,0831.2,5.00,0.00,27.4,26.7,00.0,36.5,29.2,23.5,0000.9,0023.89,0010.18,0007.93
2021-09-18 12:49:00,,0831.2,4.98,0.00,27.4,26.7,00.0,36.5,29.2,23.4,0000.3,0024.59,0010.19,0007.95
2021-09-18 12:50:00,,0831.2,5.00,0.00,27.4,26.7,00.0,36.5,29.2,23.3,0000.5,0025.83,0010.26,0007.97
2021-09-18 12:51:00,,0831.2,4.99,0.00,27.4,26.7,00.0,36.5,29.2,23.2,0000.6,0024.99,0010.30,0007.98
2021-09-18 12:52:00,,0831.2,4.99,0.00,27.4,26.7,00.0,36.5,29.2,23.1,0001.3,0024.93,0010.30,0008.00
2021-09-18 12:53:00,,0831.2,5.01,0.00,27.4,26.6,00.0,36.5,29.2,23.0,0002.0,0024.93,0010.30,0008.02
2021-09-18 12:54:00,,0831.2,5.01,0.00,27.4,26.6,00.0,36.5,29.1,23.0,0002.2,0025.10,0010.35,0008.04
2021-09-18 12:55:00,,0831.2,5.01,0.00,27.4,26.6,00.0,36.5,29.1,22.8,0002.3,0025.76,0010.33,0008.07
2021-09-18 12:56:00,,0831.2,5.00,0.00,27.4,26.6,00.0,36.5,29.1,23.0,0002.2,0026.19,0010.29,0008.07
2021-09-18 12:57:00,,0831.2,4.99,0.00,27.4,26.6,00.0,36.5,29.1,23.6,0001.9,0025.87,0010.27,0008.04
2021-09-18 12:58:00,,0831.2,5.01,0.00,27.4,26.6,00.0,36.5,29.1,23.3,0001.7,0026.32,0010.26,0008.03
2021-09-18 12:59:00,,0831.2,5.01,0.00,27.4,26.6,00.0,36.5,29.1,22.8,0001.7,0026.18,0010.22,0008.06
